x

8551762 - Delaware City, De (deld1) Weather Station

10:30am - Sat 25th Feb 2017 All times are EST. -5 hours from GMT.

  • Wind
    8mph, 10mph gusts
  • Sea Temp 44°f
  • Air Temp 62°f
  • Sea Pressure 1004.5mb
  • 8551762 - Delaware City, De
  • 8551762 - Delaware City, De

More Historic Weather Station data

Upgrade to MSW Pro to gain access to the past 30 days of data for over 8000 Wavebouys and Weather Stations around the globe.

Join Pro

Comparision Forecast

View Surf forecast
   
Sat 02/25 10:30am 8 10 mph 1004.5mb 44f 62f
10:24am 6 13 mph 1004.5mb 44f 62f
10:18am 8 11 mph 1004.6mb 44f 61f
10:12am 9 13 mph 1004.7mb 44f 61f
10:06am 7 11 mph 1005.1mb 44f 60f
10:00am 6 9 mph 1005mb 44f 60f
9:54am 9 13 mph 1005mb 44f 59f
9:48am 9 13 mph 1005mb 44f 59f
9:42am 9 11 mph 1005.1mb 44f 59f
9:36am 7 11 mph 1005.3mb 44f 58f
9:30am 8 11 mph 1005.3mb 44f 58f
9:24am 9 13 mph 1005.3mb 44f 58f
9:18am 8 14 mph 1005.2mb 44f 58f
9:12am 10 14 mph 1005.1mb 44f 58f
9:06am 9 14 mph 1005.1mb 44f 57f
9:00am 9 14 mph 1005.3mb 44f 56f
8:54am 8 14 mph 1005.5mb 44f 56f
8:48am 10 14 mph 1005.5mb 44f 55f
8:42am 9 14 mph 1005.7mb 44f 55f
8:36am 7 9 mph 1005.9mb 44f 55f
8:30am 6 11 mph 1006.1mb 44f 54f
8:24am 6 9 mph 1006.1mb 44f 53f
8:18am 7 11 mph 1006.1mb 44f 53f
8:12am 8 10 mph 1006.1mb 44f 53f
8:06am 8 11 mph 1006.2mb 44f 53f
8:00am 8 11 mph 1006.4mb 44f 52f
7:54am 7 11 mph 1006.5mb 44f 52f
7:48am 7 10 mph 1006.5mb 44f 52f
7:42am 6 9 mph 1006.6mb 44f 51f
7:36am 6 10 mph 1006.7mb 44f 51f
7:30am 6 8 mph 1006.7mb 44f 51f
7:24am 5 7 mph 1006.8mb 44f 51f
7:18am 5 6 mph 1006.7mb 44f 51f
7:12am 5 6 mph 1006.7mb 44f 51f
7:06am 5 7 mph 1006.8mb 44f 51f
7:00am 5 7 mph 1006.9mb 44f 51f
6:54am 6 7 mph 1006.9mb 44f 50f
6:48am 5 6 mph 1006.9mb 44f 50f
6:42am 5 7 mph 1007mb 44f 50f
6:36am 5 6 mph 1007.1mb 44f 50f
6:30am 5 6 mph 1007.1mb 44f 50f
6:24am 5 6 mph 1007.2mb 44f 50f
6:18am 5 6 mph 1007.2mb 44f 50f
6:12am 5 8 mph 1007.3mb 44f 51f
6:06am 5 6 mph 1007.3mb 44f 51f
6:00am 6 8 mph 1007.2mb 44f 51f
5:54am 6 8 mph 1007.2mb 44f 51f
5:48am 5 8 mph 1007.3mb 45f 51f
5:42am 5 7 mph 1007.4mb 45f 51f
5:36am 5 8 mph 1007.5mb 45f 51f
5:30am 6 7 mph 1007.6mb 45f 51f
5:24am 6 7 mph 1007.6mb 45f 51f
5:18am 6 7 mph 1007.7mb 45f 51f
5:12am 6 9 mph 1007.6mb 45f 51f
5:06am 6 8 mph 1007.7mb 45f 51f
5:00am 5 7 mph 1007.8mb 45f 52f
4:54am 5 7 mph 1007.8mb 45f 52f
4:48am 6 8 mph 1007.7mb 45f 52f
4:42am 6 8 mph 1007.7mb 45f 52f
4:36am 5 7 mph 1007.8mb 45f 52f
4:30am 6 8 mph 1007.8mb 45f 52f
4:24am 5 8 mph 1007.8mb 45f 52f
4:18am 6 7 mph 1007.9mb 45f 52f
4:12am 5 7 mph 1007.9mb 45f 52f
4:06am 6 8 mph 1007.9mb 45f 52f
4:00am 6 7 mph 1007.9mb 45f 52f
3:54am 5 7 mph 1008mb 45f 52f
3:48am 6 7 mph 1008mb 45f 52f
3:42am 5 6 mph 1008mb 45f 52f
3:36am 5 6 mph 1008.2mb 45f 52f
3:30am 5 7 mph 1008.3mb 45f 52f
3:24am 5 6 mph 1008.4mb 45f 52f
3:18am 3 6 mph 1008.5mb 44f 52f
3:12am 5 7 mph 1008.6mb 44f 52f
3:06am 5 6 mph 1008.8mb 44f 52f
3:00am 5 6 mph 1008.9mb 44f 52f
2:54am 5 7 mph 1009mb 44f 52f
2:48am 6 7 mph 1009mb 44f 52f
2:42am 5 7 mph 1009mb 44f 52f
2:36am 5 7 mph 1009mb 44f 52f
2:30am 3 6 mph 1009.1mb 44f 52f
2:24am 5 6 mph 1009.2mb 44f 52f
2:18am 3 5 mph 1009.3mb 44f 52f
2:12am 3 6 mph 1009.4mb 44f 52f
2:06am 3 6 mph 1009.4mb 44f 52f
2:00am 5 6 mph 1009.4mb 44f 52f
1:54am 5 6 mph 1009.5mb 44f 53f
1:48am 5 6 mph 1009.6mb 44f -
1:42am 5 7 mph 1009.5mb 44f -
1:36am 5 8 mph 1009.3mb 44f -
1:30am 5 7 mph 1009.3mb 44f 53f
1:24am 5 7 mph 1009.4mb 44f 53f
1:18am 6 9 mph 1009.3mb 44f 53f
1:12am 6 8 mph 1009.3mb 44f 53f
1:06am 6 8 mph 1009.3mb 44f 53f
1:00am 6 8 mph 1009.4mb 44f 53f
12:54am 6 8 mph 1009.4mb 44f 53f
12:48am 5 10 mph 1009.4mb - -
12:42am 6 9 mph 1009.4mb - -
12:36am 7 9 mph 1009.4mb - -
12:30am 6 9 mph 1009.5mb 44f 54f
12:24am 6 8 mph 1009.6mb 44f 54f
12:18am 6 8 mph 1009.6mb 44f 54f
12:12am 6 8 mph 1009.7mb 44f 54f
12:06am 6 9 mph 1009.7mb 44f 53f
12:00am 6 8 mph 1009.7mb 44f 53f
Fri 02/24 11:54pm 6 8 mph 1009.7mb 44f 53f
11:48pm 5 8 mph 1009.7mb 44f 53f
11:42pm 6 9 mph 1009.7mb 44f 53f
11:36pm 6 8 mph 1009.7mb 44f 54f
11:30pm 6 8 mph 1009.8mb 44f 54f
11:24pm 5 8 mph 1009.9mb 44f 54f
11:18pm 5 8 mph 1009.9mb 44f 54f
11:12pm 6 8 mph 1010mb 44f 54f
11:06pm 6 8 mph 1010mb 44f 54f
11:00pm 6 8 mph 1010mb 44f 54f
10:54pm 7 9 mph 1010.1mb 44f 54f
10:48pm 6 9 mph 1010.1mb 44f 54f
10:42pm 6 10 mph 1010.1mb 44f 54f
10:36pm 6 8 mph 1010.2mb 44f 54f
10:30pm 6 8 mph 1010.2mb 44f 54f
10:24pm 6 9 mph 1010.3mb 44f 54f
10:18pm 6 9 mph 1010.3mb 44f 54f
10:12pm 6 7 mph 1010.4mb 44f 54f
10:06pm 5 8 mph 1010.4mb 44f 55f
10:00pm 6 7 mph 1010.5mb 44f 55f
9:54pm 6 9 mph 1010.4mb 44f 56f
9:48pm 7 9 mph 1010.5mb 44f 56f
9:42pm 6 9 mph 1010.4mb 44f 56f
9:36pm 7 8 mph 1010.3mb 44f 56f
9:30pm 6 9 mph 1010.3mb 44f 56f
9:24pm 6 9 mph 1010.4mb 44f 56f
9:18pm 7 10 mph 1010.3mb 44f 56f
9:12pm 7 9 mph 1010.3mb 44f 55f
9:06pm 6 10 mph 1010.2mb 44f 55f
9:00pm 8 11 mph 1010.2mb 44f 55f
8:54pm 6 13 mph 1010.2mb 44f 55f
8:48pm 7 11 mph 1010.1mb 44f 55f
8:42pm 8 11 mph 1010.1mb 44f 55f
8:36pm 7 13 mph 1010.1mb 44f 54f
8:30pm 7 11 mph 1010.2mb 44f 54f
8:24pm 7 11 mph 1010.2mb 44f 53f
8:18pm 8 13 mph 1010.2mb 44f 53f
8:12pm 9 13 mph 1010.2mb 44f 53f
8:06pm 8 13 mph 1010.3mb 44f 53f
8:00pm 9 11 mph 1010.2mb 44f 53f
7:54pm 8 14 mph 1010.3mb 44f 53f
7:48pm 9 14 mph 1010.3mb 44f 54f
7:42pm 8 14 mph 1010.3mb 44f 54f
7:36pm 8 11 mph 1010.3mb 44f 54f
7:30pm 8 14 mph 1010.3mb 44f 54f
7:24pm 9 15 mph 1010.4mb 44f 54f
7:18pm 10 15 mph 1010.5mb 44f 54f
7:12pm 9 14 mph 1010.6mb 44f 55f
7:06pm 9 15 mph 1010.6mb 44f 55f
7:00pm 9 14 mph 1010.5mb 44f 56f
6:54pm 10 15 mph 1010.4mb 44f 56f
6:48pm 9 15 mph 1010.3mb 44f 56f
6:42pm 8 14 mph 1010.3mb 44f 56f
6:36pm 8 14 mph 1010.2mb 44f 56f
6:30pm 10 14 mph 1010.2mb 44f 57f
6:24pm 10 15 mph 1010.2mb 44f 56f
6:18pm 10 17 mph 1010.2mb 44f 56f
6:12pm 10 17 mph 1010.3mb 44f 56f
6:06pm 8 11 mph 1010.4mb 45f 56f
6:00pm 9 14 mph 1010.4mb 44f 56f
5:54pm 10 16 mph 1010.5mb 44f 56f
5:48pm 9 15 mph 1010.6mb - 57f
5:42pm 13 17 mph 1010.6mb - 58f
5:36pm 13 17 mph 1010.7mb - 59f
5:30pm 10 15 mph 1010.7mb 45f 60f
5:24pm 13 17 mph 1010.8mb 45f 60f
5:18pm 11 15 mph 1010.8mb 45f 60f
5:12pm 11 17 mph 1010.8mb 45f 61f
5:06pm 10 15 mph 1010.8mb 45f 61f
5:00pm 8 14 mph 1010.9mb 45f 62f
4:54pm 10 15 mph 1010.9mb 46f 62f
4:48pm 9 14 mph 1010.8mb 46f 62f
4:42pm 10 15 mph 1010.9mb 46f 63f
4:36pm 10 14 mph 1010.9mb 46f 62f
4:30pm 11 16 mph 1010.9mb 46f 63f
4:24pm 11 15 mph 1010.9mb 46f 64f
4:18pm 9 14 mph 1010.9mb 46f 64f
4:12pm 10 15 mph 1010.9mb 46f 65f
4:06pm 8 15 mph 1010.9mb 46f 65f
4:00pm 10 17 mph 1010.9mb 46f 65f
3:54pm 11 20 mph 1010.9mb 46f 66f
3:48pm 10 18 mph 1010.9mb 46f 66f
3:42pm 11 16 mph 1010.9mb 46f 66f
3:36pm 8 14 mph 1011mb 46f 66f
3:30pm 11 18 mph 1011mb 47f 66f
3:24pm 9 15 mph 1011mb 47f 68f
3:18pm 9 15 mph 1011mb 46f 67f
3:12pm 9 17 mph 1011.1mb 47f 67f
3:06pm 9 15 mph 1011.2mb 47f 68f
3:00pm 9 14 mph 1011.2mb 47f 68f
2:54pm 11 17 mph 1011.2mb 47f 67f
2:48pm 10 15 mph 1011.2mb 47f 67f
2:42pm 9 14 mph 1011.1mb 46f 67f
2:36pm 11 15 mph 1011.2mb 46f 67f
2:30pm 10 17 mph 1011.2mb 46f 67f
2:24pm 9 14 mph 1011.2mb 46f 67f
2:18pm 7 9 mph 1011.2mb 46f 67f
2:12pm 7 13 mph 1011.3mb 46f 67f
2:06pm 8 13 mph 1011.4mb 45f 67f
2:00pm 7 11 mph 1011.5mb 45f 67f
1:54pm 9 14 mph 1011.4mb 45f 68f
1:48pm 8 11 mph 1011.4mb 45f 69f
1:42pm 7 9 mph 1011.4mb 45f 69f
1:36pm 6 10 mph 1011.5mb 45f 67f
1:30pm 7 9 mph 1011.5mb 44f 66f
1:24pm 7 9 mph 1011.5mb 43f 69f
1:18pm 7 11 mph 1011.6mb 43f 69f
1:12pm 10 13 mph 1011.6mb 43f 67f
1:06pm 6 8 mph 1011.7mb 44f 67f
1:00pm 8 10 mph 1011.8mb 43f 65f
12:54pm 7 10 mph 1011.9mb 43f 67f
12:48pm 6 8 mph 1012mb 43f 69f
12:42pm 6 7 mph 1012.1mb 43f 67f
12:36pm 8 11 mph 1012.2mb 43f 66f
12:30pm 6 13 mph 1012.3mb 43f 68f
12:24pm 6 8 mph 1012.4mb 43f 68f
12:18pm 7 9 mph 1012.5mb 43f 68f
12:12pm 7 10 mph 1012.6mb 43f 68f
12:06pm 8 11 mph 1012.7mb 43f 68f
12:00pm 7 10 mph 1012.8mb 43f 64f
11:54am 8 9 mph 1012.9mb 43f 62f
11:48am 7 10 mph 1013.1mb 43f 65f
11:42am 6 10 mph 1013.3mb 43f 62f
11:36am 7 9 mph 1013.4mb 43f 61f
11:30am 7 10 mph 1013.5mb 43f 60f
11:24am 9
mph
1013.6mb 43f 61f
11:18am 7 9 mph 1013.6mb 43f 61f
11:12am 7 9 mph 1013.7mb 43f 62f
11:06am 5 8 mph 1013.7mb 43f 64f
11:00am 6 8 mph 1013.7mb 43f 64f
10:54am 6 8 mph 1013.8mb 43f 62f
10:48am 7 8 mph 1013.9mb 43f 61f
10:42am 7 9 mph 1013.9mb 43f 58f
10:36am 7 9 mph 1013.9mb 43f 58f
10:30am 8 9 mph 1013.9mb 43f 58f
10:18am 7 8 mph 1014mb 42f 57f
10:12am 6 8 mph 1014.1mb 42f 57f
10:06am 7 9 mph 1014.2mb 42f 57f
10:00am 8 9 mph 1014.2mb 42f 55f
9:54am 7 9 mph 1014.2mb 42f 55f
9:48am 6 8 mph 1014.2mb 42f 55f
9:42am 6 7 mph 1014.1mb 42f 53f
9:36am 6 8 mph 1014.1mb 42f 55f
9:30am 6 7 mph 1014.1mb 42f 55f
9:24am 5 6 mph 1014.2mb 42f 55f
9:18am 5
mph
1014.1mb 42f 55f
9:12am 3 5 mph 1014.2mb 42f 56f
9:06am 3 6 mph 1014.1mb 42f 56f
9:00am 3 6 mph 1014.1mb 42f 55f
8:54am 3 5 mph 1014.1mb 42f 53f
8:48am 5 6 mph 1014.1mb 42f 55f
8:42am 3 5 mph 1014.1mb 43f 56f
8:36am 2 5 mph 1014.1mb 43f 56f
8:30am 2 6 mph 1014.1mb 43f 55f
8:24am 3 5 mph 1014.1mb 43f 55f
8:18am 3 6 mph 1014.1mb 43f 54f
8:12am 5 6 mph 1014mb 43f 54f
8:06am 5 6 mph 1014mb 43f 54f
8:00am 2 3 mph 1014mb 43f 54f
7:54am 2 5 mph 1013.9mb 43f 53f
7:48am 3 5 mph 1013.8mb 43f 52f
7:42am 5 6 mph 1013.8mb 43f 52f
7:36am 5 6 mph 1013.7mb 43f 51f
7:30am 6 8 mph 1013.7mb 43f 51f
7:24am 6 8 mph 1013.6mb 43f 51f
7:18am 5 7 mph 1013.5mb 43f 50f
7:12am 5 7 mph 1013.5mb 43f 50f
7:06am 5 8 mph 1013.5mb 43f 49f
7:00am 5 6 mph 1013.5mb 43f 49f
6:54am 2 5 mph 1013.4mb 43f 49f
6:48am 3 5 mph 1013.4mb 43f 48f
6:42am 3 7 mph 1013.4mb 43f 48f
6:36am 3 5 mph 1013.5mb 43f 48f
6:30am 3 5 mph 1013.5mb 43f 48f
6:24am 2 3 mph 1013.5mb 43f 48f
6:18am 2 3 mph 1013.6mb 43f 48f
6:12am 2 3 mph 1013.6mb 43f 48f
6:06am 3
mph
1013.6mb 44f 48f
6:00am 3 5 mph 1013.6mb 44f 48f
5:54am 3 6 mph 1013.5mb 44f 48f
5:48am 5
mph
1013.4mb 44f 48f
5:42am 3 5 mph 1013.4mb 44f 48f
5:36am 3 6 mph 1013.4mb 44f 48f
5:30am 3 7 mph 1013.3mb 44f 49f
5:24am 5 6 mph 1013.3mb 44f 49f
5:18am 5 6 mph 1013.4mb 44f 48f
5:12am 3 5 mph 1013.3mb 44f 48f
5:06am 3 6 mph 1013.3mb 44f 48f
5:00am 1 2 mph 1013.2mb 44f 47f
4:54am 1
mph
1013.3mb 44f 46f
4:48am 1 2 mph 1013.2mb 44f 46f
4:42am 1
mph
1013.2mb 44f 47f
4:36am  -  1 mph 1013.2mb 45f 46f
4:30am  -  1 mph 1013.2mb 45f 47f
4:24am 1
mph
1013.2mb 45f 47f
4:18am  -  1 mph 1013.3mb 45f 47f
4:12am  -  2 mph 1013.3mb 45f 47f
4:06am  -  2 mph 1013.3mb 45f 48f
4:00am 1 2 mph 1013.2mb 45f 48f
3:54am 1
mph
1013mb 45f 48f
3:48am  -  mph 1012.9mb 45f 48f
3:42am  -  1 mph 1012.9mb 45f 48f
3:36am  -  1 mph 1012.8mb 45f 48f
3:30am  -  mph 1012.9mb 45f 48f
3:24am  -  1 mph 1012.9mb 45f 48f
3:18am 1 2 mph 1012.8mb 45f 48f
3:12am  -  1 mph 1012.8mb 45f 49f
3:06am 1 3 mph 1012.8mb 45f 50f
3:00am 2 3 mph 1012.8mb 45f 50f
2:54am 3 5 mph 1012.9mb 45f 50f
2:48am 3
mph
1013mb 45f 50f
2:42am 3 5 mph 1013mb 45f 50f
2:36am 2 5 mph 1013mb 45f 50f
2:30am 3 6 mph 1013mb 44f 50f
2:24am 3 6 mph 1013mb 44f 50f
2:18am 3 5 mph 1013mb 44f 50f
2:12am 5 6 mph 1013mb 44f 50f
2:06am 5 6 mph 1013.1mb 44f 50f
2:00am 5 6 mph 1013.1mb 44f 51f
1:54am 5 7 mph 1013.1mb 44f 51f
1:48am 5 8 mph 1013.1mb 44f -
1:42am 6 8 mph 1013.1mb 44f -
1:36am 6 7 mph 1013.2mb 44f -
1:30am 5 8 mph 1013.2mb 44f 51f
1:24am 5 6 mph 1013.2mb 44f 51f
1:18am 6 7 mph 1013.1mb 44f 51f
1:12am 6 8 mph 1013.1mb 44f 51f
1:06am 5 7 mph 1013.1mb 44f 51f
1:00am 5 6 mph 1013.1mb 43f 50f
12:54am 2 3 mph 1013.1mb 43f 50f
12:48am 2 3 mph 1013.1mb 43f -
12:42am 2 3 mph 1013.1mb 43f -
12:36am 2 3 mph 1013mb 43f -
12:30am 2 3 mph 1013mb 43f 50f
12:24am 1 2 mph 1013mb 43f 50f
12:18am  -  1 mph 1013mb 43f 50f
12:12am 1
mph
1013mb 43f 50f
12:06am 1 3 mph 1013mb 43f 49f
12:00am 2 3 mph 1013mb 43f 49f
Thu 02/23 11:54pm 2
mph
1012.9mb 43f 52f
11:48pm 1 2 mph 1012.8mb 43f 52f
11:42pm 2 3 mph 1012.7mb 43f 52f
11:36pm 2 6 mph 1012.7mb 43f 52f
11:30pm 5 8 mph 1012.7mb 43f 52f
11:24pm 3 6 mph 1012.6mb 43f 52f
11:18pm 5 7 mph 1012.5mb 43f 53f
11:12pm 5 7 mph 1012.5mb 43f 53f
11:06pm 6 10 mph 1012.4mb 43f 53f
11:00pm 5 9 mph 1012.4mb 43f 53f
10:54pm 6 8 mph 1012.4mb 43f 53f
10:48pm 6 9 mph 1012.4mb 43f 54f
10:42pm 6 8 mph 1012.3mb 43f 54f
10:36pm 5 7 mph 1012.4mb 43f 54f
10:30pm 6 7 mph 1012.4mb 43f 54f
10:24pm 6 8 mph 1012.4mb 43f 55f
10:18pm 6 7 mph 1012.4mb 43f 54f
10:12pm 5 6 mph 1012.4mb 43f 55f
10:06pm 5 6 mph 1012.3mb 43f 55f
10:00pm 5 7 mph 1012.4mb 43f 55f
9:54pm 5 7 mph 1012.4mb 43f 55f
9:48pm 6 8 mph 1012.3mb 43f 55f
9:42pm 5 7 mph 1012.3mb 43f 55f
9:36pm 6 8 mph 1012.3mb 43f 55f
9:30pm 6 9 mph 1012.3mb 43f 55f
9:24pm 8 9 mph 1012.2mb 43f 54f
9:18pm 6 9 mph 1012.2mb 43f 56f
9:12pm 6 9 mph 1012.1mb 43f 60f
9:06pm 5 7 mph 1012mb 43f 59f
9:00pm 6 8 mph 1012mb 43f 58f
8:54pm 6 9 mph 1011.9mb 43f 58f
8:48pm 5 7 mph 1011.9mb 43f 59f
8:42pm 6 8 mph 1011.8mb 43f 59f
8:36pm 7 10 mph 1011.8mb 43f 62f
8:30pm 8 10 mph 1011.7mb 43f 63f
8:24pm 7 9 mph 1011.7mb 43f 63f
8:18pm 7 9 mph 1011.8mb 43f 64f
8:12pm 6 9 mph 1011.7mb 43f 64f
8:06pm 8 9 mph 1011.6mb 43f 64f
8:00pm 7 11 mph 1011.5mb 43f 64f
7:54pm 8 10 mph 1011.4mb 43f 65f
7:48pm 8 10 mph 1011.5mb 43f 65f
7:42pm 7 11 mph 1011.5mb 43f 65f
7:36pm 6 11 mph 1011.4mb 43f 65f
7:30pm 5 7 mph 1011.5mb 43f 65f
7:24pm 6 9 mph 1011.4mb 43f 65f
7:18pm 6 8 mph 1011.2mb 43f 65f
7:12pm 6 8 mph 1011.2mb 43f 65f
7:06pm 6 8 mph 1011.1mb 43f 65f
7:00pm 6 10 mph 1011.1mb 43f 66f
6:54pm 6 8 mph 1011.1mb 43f 66f
6:48pm 6 8 mph 1011mb 43f 66f
6:42pm 6 8 mph 1011mb 44f 66f
6:36pm 6 10 mph 1011mb 44f 66f
6:30pm 7 11 mph 1010.8mb 44f 67f
6:24pm 7 10 mph 1010.7mb 44f 67f
6:18pm 6 8 mph 1010.7mb 44f 67f
6:12pm 6 9 mph 1010.5mb 44f 68f
6:06pm 7 10 mph 1010.4mb 44f 68f
6:00pm 7 11 mph 1010.5mb 44f 69f
5:54pm 8 11 mph 1010.6mb 44f 69f
5:48pm 7 11 mph 1010.6mb 44f 69f
5:42pm 5 7 mph 1010.5mb 44f 69f
5:36pm 2 6 mph 1010.4mb 44f 70f
5:30pm 3 8 mph 1010.2mb 44f 70f
5:24pm 3 10 mph 1010.2mb 44f 70f
5:18pm 5 10 mph 1010.1mb 44f 70f
5:12pm 3 6 mph 1010.1mb 44f 69f
5:06pm 5 8 mph 1010mb 44f 69f
5:00pm 7 9 mph 1010mb 44f 69f
4:54pm 7 9 mph 1010mb 44f 70f
4:48pm 6 9 mph 1009.9mb 44f 70f
4:42pm 6 8 mph 1009.9mb 44f 70f
4:36pm 7 8 mph 1009.9mb 44f 70f
4:30pm 7 9 mph 1009.9mb 44f 70f
4:24pm 7 9 mph 1009.9mb 44f 70f
4:18pm 6 9 mph 1009.9mb 44f 71f
4:12pm 7 9 mph 1009.8mb 44f 71f
4:06pm 6 9 mph 1009.8mb 44f 71f
4:00pm 6 9 mph 1009.7mb 45f 72f
3:54pm 7 9 mph 1009.7mb 45f 72f
3:48pm 6 10 mph 1009.6mb 46f 73f
3:42pm 8 11 mph 1009.5mb 46f 73f
3:36pm 7 9 mph 1009.4mb 46f 73f
3:30pm 5 6 mph 1009.4mb 46f 72f
3:24pm 5 9 mph 1009.4mb 46f 71f
3:18pm 5 7 mph 1009.4mb 46f 71f
3:12pm 5 7 mph 1009.4mb 46f 72f
3:06pm 6 8 mph 1009.4mb 46f 71f
3:00pm 5 8 mph 1009.4mb 46f 70f
2:54pm 3 6 mph 1009.5mb 46f 71f
2:48pm 3 8 mph 1009.5mb 46f 71f
2:42pm 7 11 mph 1009.5mb 46f 71f
2:36pm 7 9 mph 1009.5mb 47f 71f
2:30pm 6 8 mph 1009.6mb 47f 69f
2:24pm 6 9 mph 1009.7mb 47f 68f
2:18pm 7 11 mph 1009.7mb 47f 67f
2:12pm 7 9 mph 1009.7mb 46f 68f
2:06pm 7 9 mph 1009.8mb 46f 67f
2:00pm 9 11 mph 1009.9mb 46f 68f
1:54pm 6 10 mph 1009.9mb 46f 68f
1:48pm 8 11 mph 1009.9mb 46f 70f
1:42pm 9 11 mph 1009.9mb 46f 70f
1:36pm 9 13 mph 1009.9mb 46f 69f
1:30pm 8 11 mph 1010mb 46f 69f
1:24pm 8 10 mph 1010.1mb 44f 69f
1:18pm 10 13 mph 1010.1mb 43f 69f
1:12pm 6 10 mph 1010.2mb 43f 70f
1:06pm 8 13 mph 1010.3mb 43f 69f
1:00pm 6 10 mph 1010.4mb 43f 65f
12:54pm 2 7 mph 1010.5mb 43f 60f
12:48pm 6 7 mph 1010.7mb 43f 55f
12:42pm 6 9 mph 1010.8mb 43f 56f
12:36pm 7 9 mph 1010.9mb 42f 55f
12:30pm 7 9 mph 1011mb 42f 55f
12:24pm 2 7 mph 1011.1mb 42f 59f
12:18pm 6 9 mph 1011.2mb 42f 63f
12:12pm 5 10 mph 1011.3mb 42f 65f
12:06pm 6 9 mph 1011.4mb 42f 62f
12:00pm 5 7 mph 1011.5mb 42f 55f
11:54am 6 7 mph 1011.6mb 42f 54f
11:48am 6 9 mph 1011.7mb 42f 53f
11:42am 9
mph
1011.8mb 42f 51f
11:36am 8 9 mph 1011.9mb 42f 51f
11:24am 7 9 mph 1012.1mb 42f 51f
11:18am 6 8 mph 1012.1mb 42f 50f
11:12am 6 8 mph 1012.2mb 42f 50f
11:06am 6 9 mph 1012.3mb 42f 52f
10:54am 8 9 mph 1012.6mb 42f 49f
10:48am 8 9 mph 1012.6mb 42f 49f
10:42am 6 8 mph 1012.7mb 42f 49f
10:36am 7 8 mph 1012.8mb 42f 47f
10:24am 6
mph
1012.9mb 42f 49f
10:18am 5 6 mph 1012.9mb 42f 49f
10:06am 7
mph
1013mb 42f 46f
10:00am 6
mph
1013mb 42f 47f
9:54am 6 7 mph 1013mb 42f 47f
9:48am 6 7 mph 1012.8mb 42f 47f
9:42am 5 6 mph 1012.9mb 42f 48f
9:36am 2 3 mph 1013mb 42f 48f
9:30am 2 3 mph 1013.1mb 42f 48f
9:24am 1 3 mph 1013.1mb 42f 49f
9:18am 5 6 mph 1013mb 42f 47f
9:12am 3 5 mph 1013mb 42f 47f
9:06am 2 3 mph 1013mb 42f 47f
9:00am 2 3 mph 1013mb 42f 47f
8:54am 2 3 mph 1012.9mb 42f 49f
8:48am 3 5 mph 1012.8mb 42f 48f
8:42am 3
mph
1012.9mb 42f 48f
8:36am 2 5 mph 1012.9mb 42f 47f
8:30am 5
mph
1012.9mb 42f 47f
8:24am 5
mph
1012.9mb 42f 47f
8:18am 3 5 mph 1012.9mb 42f 47f
8:12am 3 5 mph 1012.9mb 42f 47f
8:06am 3 5 mph 1012.9mb 42f 47f
8:00am 3 5 mph 1012.8mb 42f 47f
7:54am 3 5 mph 1012.8mb 42f 47f
7:48am 3 6 mph 1012.8mb 42f 46f
7:42am 5 6 mph 1012.8mb 42f 46f
7:36am 3 5 mph 1012.8mb 42f 46f
7:30am 3 6 mph 1012.7mb 42f 46f
7:24am 5 6 mph 1012.7mb 42f 46f
7:18am 5 6 mph 1012.7mb 42f 46f
7:12am 3 6 mph 1012.6mb 42f 46f
7:06am 2 5 mph 1012.6mb 42f 46f
7:00am 2 3 mph 1012.6mb 42f 46f
6:54am 3 5 mph 1012.6mb 42f 46f
6:48am 3 5 mph 1012.6mb 42f 46f
6:42am 3 5 mph 1012.5mb 42f 47f
6:36am 2 5 mph 1012.4mb 42f 47f
6:30am 3 6 mph 1012.4mb 42f 47f
6:24am 5 6 mph 1012.3mb 42f 47f
6:18am 2 3 mph 1012.2mb 42f 47f
6:12am 1 2 mph 1012.3mb 42f 47f
6:06am  -  1 mph 1012.2mb 42f 46f
6:00am  -  1 mph 1012.2mb 42f 46f
5:54am  -  1 mph 1012.2mb 42f 46f
5:48am  -  2 mph 1012.2mb 42f 46f
5:42am 1 2 mph 1012mb 42f 46f
5:36am 2
mph
1011.9mb 42f 46f
5:30am 1
mph
1011.9mb 42f 45f
5:24am  -  1 mph 1011.9mb 42f 45f
5:18am  -  1 mph 1012mb 42f 45f
5:12am  -  1 mph 1011.9mb 42f 45f
5:06am  -  1 mph 1011.9mb 42f 46f
5:00am  -  1 mph 1011.9mb 42f 46f
4:54am 1 2 mph 1011.9mb 42f 46f
4:48am 1 2 mph 1011.9mb 43f 46f
3:54am  -  1 mph 1011.9mb 43f 45f
3:48am 1
mph
1011.9mb 43f 45f
2:54am 3
mph
1012.1mb 44f 44f
2:48am 2
mph
1012.1mb 43f 44f
1:54am  -  mph 1012.4mb 43f 43f
1:48am  -  mph 1012.4mb 43f 43f
12:54am 2 3 mph 1012.6mb 43f 43f
12:48am  -  1 mph 1012.7mb 43f 42f
Wed 02/22 11:54pm 2
mph
1012.6mb 43f 44f
11:48pm 2
mph
1012.7mb 43f 43f
10:54pm 1 2 mph 1013mb 42f 45f
10:48pm 2 3 mph 1012.9mb 42f 45f
9:54pm 2 3 mph 1013.1mb 42f 44f
9:48pm 3 5 mph 1013.2mb 42f 44f
8:54pm 1 2 mph 1013.4mb 42f 45f
8:48pm 2
mph
1013.4mb 42f 45f
7:54pm 3 6 mph 1013.4mb 42f 48f
7:48pm 3 7 mph 1013.2mb 42f 48f
6:54pm 6 8 mph 1013.2mb 42f 49f
6:48pm 6 7 mph 1013.2mb 42f 49f
5:54pm 5 6 mph 1013.2mb 42f 50f
5:48pm 3 6 mph 1013.2mb 42f 50f
4:54pm 5 6 mph 1013.1mb 42f 56f
4:48pm 5 6 mph 1013.1mb 42f 56f
3:54pm 5 7 mph 1013.3mb 42f 55f
3:48pm 5 6 mph 1013.3mb 43f 54f
2:54pm 7 9 mph 1013.1mb 43f 51f
2:48pm 6 9 mph 1013.1mb 43f 51f
1:54pm 5 7 mph 1013.7mb 43f 47f
1:48pm 5 7 mph 1013.7mb 43f 47f
12:54pm 9 10 mph 1014.7mb 43f 48f
12:48pm 9 11 mph 1014.8mb 43f 47f
11:54am 8 10 mph 1015.4mb 41f 46f
11:48am 6 8 mph 1015.6mb 41f 46f
10:54am 5
mph
1016.6mb 41f 46f
10:48am 5 6 mph 1016.7mb 41f 45f
9:54am 6 8 mph 1017.3mb 41f 45f
9:48am 6 8 mph 1017.2mb 41f 45f
8:54am 5 6 mph 1017.9mb 41f 42f
8:48am 5
mph
1017.9mb 41f 42f
7:54am 3 5 mph 1017.7mb 41f 41f
7:48am 5
mph
1017.7mb 41f 41f
5:54am 3
mph
1017.8mb 42f 40f
5:48am 2 3 mph 1017.9mb 42f 40f
5:42am 2
mph
1017.9mb 42f 40f
5:36am 2
mph
1017.9mb 42f 40f
5:30am 2
mph
1018mb 42f 40f
5:24am 2
mph
1017.9mb 42f 40f
5:18am 1
mph
1018mb 42f 40f
5:12am  -  mph 1018mb 42f 40f
5:06am  -  mph 1018.1mb 42f 40f
5:00am  -  mph 1017.9mb 42f 40f
4:54am  -  1 mph 1017.9mb 42f 40f
4:48am  -  1 mph 1017.8mb 42f 40f
4:42am  -  1 mph 1017.8mb 41f 40f
4:36am 1
mph
1017.7mb 41f 40f
4:30am 1 2 mph 1017.7mb 42f 40f
4:24am  -  1 mph 1017.8mb 42f 40f
4:18am  -  1 mph 1017.7mb 42f 40f
4:12am 1 2 mph 1017.7mb 42f 40f
4:06am 1 2 mph 1017.7mb 42f 40f
4:00am 1 2 mph 1017.6mb 42f 40f
3:54am 2 3 mph 1017.7mb 42f 40f
3:48am 3 5 mph 1017.6mb 42f 40f
3:42am 2 3 mph 1017.5mb 42f 40f
3:36am 2 3 mph 1017.6mb 42f 40f
3:30am 2 3 mph 1017.6mb 42f 40f
3:24am 1 2 mph 1017.8mb 42f 40f
3:18am 2
mph
1017.9mb 42f 40f
3:12am  -  1 mph 1018mb 42f 40f
3:06am  -  1 mph 1018.1mb 42f 40f
3:00am  -  1 mph 1018.1mb 42f 40f
2:54am  -  2 mph 1018.1mb 42f 40f
2:48am 1 2 mph 1018.2mb 42f 40f
2:42am  -  2 mph 1018.3mb 42f 41f
2:36am 1
mph
1018.3mb 42f 41f
2:30am  -  1 mph 1018.4mb 42f 41f
2:24am  -  1 mph 1018.6mb 42f 41f
2:18am  -  2 mph 1018.6mb 42f 41f
2:12am 1
mph
1018.6mb 42f 41f
2:06am 1
mph
1018.8mb 42f 41f
2:00am  -  2 mph 1018.8mb 42f 41f
1:54am 2
mph
1018.9mb 42f 41f
1:48am 2
mph
1019.1mb - -
1:42am 1 2 mph 1019.1mb - -
1:36am  -  mph 1019.1mb - -
1:30am  -  1 mph 1019.1mb 42f 41f
1:24am 1 5 mph 1019.2mb 42f 41f
1:18am 2 6 mph 1019.3mb 42f 41f
1:12am 3 6 mph 1019.2mb 42f 41f
1:06am 3 6 mph 1019.2mb 42f 41f
1:00am 3 6 mph 1019.3mb 42f 41f
12:54am 3 7 mph 1019.3mb 42f 41f
12:48am 5 6 mph 1019.6mb 42f 41f
12:42am 6 8 mph 1019.6mb 42f 41f
12:36am 6 7 mph 1019.6mb 42f 41f
12:30am 5 7 mph 1019.8mb 42f 41f
12:24am 5 7 mph 1019.9mb 42f 41f
12:18am 3 8 mph 1020.2mb 42f 41f
12:12am 5 6 mph 1020mb 43f 41f
12:06am 5 6 mph 1020.2mb 42f 41f
12:00am 3 7 mph 1020.3mb 43f 41f
Tue 02/21 11:54pm 5 6 mph 1020.4mb 43f 41f
11:48pm 3 6 mph 1020.5mb 44f 41f
11:42pm 5 6 mph 1020.6mb 43f 41f
11:36pm 2 5 mph 1020.7mb 44f 41f
11:30pm 3 6 mph 1020.8mb 44f 41f
11:24pm 5 8 mph 1020.9mb 44f 41f
11:18pm 7 9 mph 1020.9mb 43f 41f
11:12pm 6 7 mph 1020.8mb 43f 41f
11:06pm 6 8 mph 1020.9mb 42f 40f
11:00pm 6 8 mph 1020.8mb 41f 40f
10:54pm 5 8 mph 1021mb 41f 40f
10:48pm 6 7 mph 1021.2mb 41f 40f
10:42pm 6 7 mph 1021.3mb 41f 41f
10:36pm 5 8 mph 1021.5mb 41f 41f
10:30pm 5 7 mph 1021.6mb 41f 41f
10:24pm 5 7 mph 1021.6mb 41f 41f
10:18pm 5 7 mph 1021.7mb 41f 41f
10:12pm 3 6 mph 1021.8mb 41f 41f
10:06pm 5 8 mph 1021.9mb 41f 41f
10:00pm 3 6 mph 1022.2mb 41f 41f
9:54pm 3 6 mph 1022.4mb 41f 41f
9:48pm 3 6 mph 1022.2mb 41f 41f
9:42pm 3 5 mph 1022.3mb 41f 42f
9:36pm 3 6 mph 1022.5mb 41f 42f
9:30pm 5 6 mph 1022.4mb 41f 42f
9:24pm 6 7 mph 1022.3mb 41f 42f
9:18pm 5 8 mph 1022.3mb 41f 42f
9:12pm 6 9 mph 1022.2mb 41f 42f
9:06pm 6 9 mph 1022.2mb 41f 42f
9:00pm 6 9 mph 1022.2mb 41f 42f
8:54pm 6 11 mph 1022.2mb 41f 42f
8:48pm 6 9 mph 1022.2mb 41f 42f
8:42pm 7 10 mph 1022.3mb 41f 42f
8:36pm 6 9 mph 1022.4mb 41f 42f
8:30pm 7 9 mph 1022.3mb 41f 42f
8:24pm 7 9 mph 1022.3mb 41f 42f
8:18pm 7 9 mph 1022.4mb 41f 42f
8:12pm 8 11 mph 1022.4mb 41f 42f
8:06pm 7 9 mph 1022.5mb 41f 42f
8:00pm 6 10 mph 1022.5mb 41f 42f
7:54pm 7 13 mph 1022.5mb 41f 42f
7:48pm 8 10 mph 1022.5mb 41f 42f
7:42pm 7 13 mph 1022.6mb 41f 42f
7:36pm 7 11 mph 1022.5mb 41f 42f
7:30pm 8 10 mph 1022.5mb 41f 42f
7:24pm 8 10 mph 1022.6mb 41f 43f
7:18pm 8 11 mph 1022.6mb 42f 43f
7:12pm 7 11 mph 1022.5mb 42f 43f
7:06pm 9 11 mph 1022.4mb 42f 42f
7:00pm 8 14 mph 1022.6mb 42f 43f
6:54pm 8 11 mph 1022.6mb 42f 43f
6:48pm 6 10 mph 1022.9mb 42f 43f
6:42pm 7 13 mph 1022.8mb 42f 43f
6:36pm 7 13 mph 1022.5mb 42f 43f
6:30pm 8 10 mph 1022.6mb 42f 43f
6:24pm 8 11 mph 1022.6mb 42f 43f
6:18pm 9 13 mph 1022.6mb 42f 43f
6:12pm 7 13 mph 1022.6mb 42f 43f
6:06pm 8 11 mph 1022.4mb 42f 43f
6:00pm 8 11 mph 1022.4mb 42f 43f
5:54pm 8 11 mph 1022.5mb 42f 43f
5:48pm 9 13 mph 1022.4mb 42f 43f
5:42pm 8 13 mph 1022.5mb 42f 44f
5:36pm 7 11 mph 1022.6mb 42f 44f
5:30pm 9 11 mph 1022.6mb 42f 44f
5:24pm 10 15 mph 1022.5mb 42f 44f
5:18pm 8 14 mph 1022.5mb 42f 44f
5:12pm 9 13 mph 1022.6mb 42f 45f
5:06pm 9 13 mph 1022.8mb 42f 45f
5:00pm 10 15 mph 1022.8mb 42f 45f
4:54pm 9 16 mph 1022.9mb 42f 45f
4:48pm 8 13 mph 1023mb 42f 45f
4:42pm 10 17 mph 1023mb 42f 45f
4:36pm 7 13 mph 1023.1mb 42f 46f
4:30pm 10 16 mph 1023.1mb 42f 46f
4:24pm 10 16 mph 1023.2mb 42f 46f